ITY1574 LIML-LIEE

Flight info

Callsign ITY1574
Flight time 1h 2m
Altitude 37000
Route ITCAP DCT OTMUV DCT UNITA DCT ERTEV DCT TORTU DCT OKROK DCT AJO DCT CORSI DCT UPDUT DCT INDUM DCT MINKA DCT ORVEX DCT BOLOT/N0373F190 M858 RAMEN M732 KOVAS
Aircraft A319/M-SDE3FGHIRWY/LB1

Departure

Time 2026-05-08 15:33
Airport Milano Linate Airport (LIML)

Arrival

Time 2026-05-08 16:35
Airport Cagliari Elmas Airport (LIEE)
Time Latitude Longitude Altitude Speed Heading
2026-05-08 14:55 45.45975 9.27904 360 ft 0 kts 359°
2026-05-08 15:19 45.45967 9.27902 363 ft 4 kts 323°
2026-05-08 15:19 45.45959 9.27913 366 ft 1 kts 338°
2026-05-08 15:19 45.45942 9.27922 363 ft 1 kts
2026-05-08 15:19 45.45959 9.27923 364 ft 3 kts
2026-05-08 15:20 45.45953 9.27916 366 ft 4 kts 75°
2026-05-08 15:20 45.45938 9.27935 360 ft 4 kts 144°
2026-05-08 15:20 45.45954 9.27913 366 ft 4 kts 99°
2026-05-08 15:20 45.45951 9.27899 361 ft 4 kts 39°
2026-05-08 15:21 45.45929 9.27878 362 ft 4 kts 26°
2026-05-08 15:21 45.45909 9.27861 364 ft 4 kts 72°
2026-05-08 15:21 45.45907 9.27854 363 ft 0 kts 90°
2026-05-08 15:23 45.45907 9.27857 363 ft 1 kts 90°
2026-05-08 15:24 45.45907 9.27886 363 ft 5 kts 90°
2026-05-08 15:24 45.45907 9.27945 364 ft 7 kts 91°
2026-05-08 15:24 45.45872 9.27983 360 ft 7 kts 172°
2026-05-08 15:24 45.45817 9.27983 360 ft 9 kts 180°
2026-05-08 15:25 45.45740 9.27982 365 ft 12 kts 181°
2026-05-08 15:25 45.45652 9.27980 360 ft 13 kts 181°
2026-05-08 15:25 45.45558 9.27979 360 ft 14 kts 180°
2026-05-08 15:25 45.45457 9.27978 360 ft 15 kts 180°
2026-05-08 15:26 45.45364 9.27961 360 ft 13 kts 205°
2026-05-08 15:26 45.45280 9.27900 360 ft 14 kts 205°
2026-05-08 15:26 45.45184 9.27869 360 ft 15 kts 179°
2026-05-08 15:26 45.45069 9.27882 360 ft 17 kts 176°
2026-05-08 15:27 45.44964 9.27895 362 ft 14 kts 172°
2026-05-08 15:27 45.44871 9.27931 362 ft 13 kts 164°
2026-05-08 15:27 45.44780 9.27946 363 ft 14 kts 175°
2026-05-08 15:27 45.44682 9.27957 360 ft 15 kts 176°
2026-05-08 15:28 45.44578 9.27967 360 ft 16 kts 176°
2026-05-08 15:28 45.44473 9.27979 362 ft 14 kts 175°
2026-05-08 15:28 45.44376 9.27989 360 ft 14 kts 175°
2026-05-08 15:28 45.44274 9.28000 360 ft 15 kts 175°
2026-05-08 15:29 45.44165 9.28012 360 ft 16 kts 175°
2026-05-08 15:29 45.44050 9.28025 360 ft 17 kts 175°
2026-05-08 15:29 45.43929 9.28037 361 ft 18 kts 176°
2026-05-08 15:29 45.43803 9.28051 364 ft 19 kts 175°
2026-05-08 15:30 45.43672 9.28065 361 ft 19 kts 176°
2026-05-08 15:30 45.43547 9.28078 361 ft 15 kts 176°
2026-05-08 15:30 45.43458 9.28048 361 ft 14 kts 229°
2026-05-08 15:30 45.43443 9.27945 360 ft 9 kts 269°
2026-05-08 15:31 45.43441 9.27865 366 ft 7 kts 269°
2026-05-08 15:31 45.43471 9.27817 363 ft 9 kts 348°
2026-05-08 15:31 45.43490 9.27816 353 ft 0 kts 355°
2026-05-08 15:32 45.43579 9.27806 361 ft 47 kts 355°
2026-05-08 15:32 45.44167 9.27744 359 ft 121 kts 355°
2026-05-08 15:32 45.45171 9.27638 576 ft 154 kts 356°
2026-05-08 15:33 45.46229 9.27513 1248 ft 151 kts 356°
2026-05-08 15:33 45.47236 9.27839 1863 ft 153 kts 37°
2026-05-08 15:33 45.47893 9.29090 2311 ft 170 kts 72°
2026-05-08 15:33 45.47843 9.30847 2690 ft 193 kts 112°
2026-05-08 15:34 45.47064 9.32567 3068 ft 220 kts 128°
2026-05-08 15:34 45.46017 9.34305 3623 ft 243 kts 131°
2026-05-08 15:34 45.44714 9.35985 4269 ft 262 kts 146°
2026-05-08 15:34 45.43070 9.37180 5209 ft 270 kts 162°
2026-05-08 15:35 45.41200 9.37247 6206 ft 275 kts 191°
2026-05-08 15:35 45.39328 9.36655 7226 ft 276 kts 191°
2026-05-08 15:35 45.37433 9.36142 8231 ft 279 kts 189°
2026-05-08 15:35 45.35511 9.35671 9203 ft 283 kts 189°
2026-05-08 15:36 45.33555 9.35212 10136 ft 287 kts 188°
2026-05-08 15:36 45.31519 9.34738 10608 ft 309 kts 189°
2026-05-08 15:36 45.29326 9.34223 11051 ft 327 kts 189°
2026-05-08 15:36 45.27056 9.33687 11816 ft 333 kts 189°
2026-05-08 15:37 45.24750 9.33141 12626 ft 339 kts 189°
2026-05-08 15:37 45.22410 9.32585 13461 ft 343 kts 190°
2026-05-08 15:37 45.20040 9.32018 14212 ft 348 kts 190°
2026-05-08 15:37 45.17640 9.31442 14906 ft 352 kts 190°
2026-05-08 15:38 45.15204 9.30855 15596 ft 357 kts 191°
2026-05-08 15:38 45.12738 9.30261 16293 ft 362 kts 191°
2026-05-08 15:38 45.10244 9.29664 16996 ft 366 kts 191°
2026-05-08 15:38 45.07716 9.29057 17692 ft 370 kts 190°
2026-05-08 15:39 45.05164 9.28447 18370 ft 375 kts 191°
2026-05-08 15:39 45.02578 9.27829 18972 ft 378 kts 191°
2026-05-08 15:39 44.99976 9.27207 19645 ft 380 kts 191°
2026-05-08 15:39 44.97359 9.26585 20331 ft 382 kts 191°
2026-05-08 15:40 44.94733 9.25963 20987 ft 384 kts 192°
2026-05-08 15:40 44.92088 9.25336 21639 ft 387 kts 192°
2026-05-08 15:40 44.89424 9.24703 22284 ft 389 kts 192°
2026-05-08 15:40 44.86740 9.24064 22919 ft 392 kts 192°
2026-05-08 15:41 44.84073 9.23428 23496 ft 394 kts 193°
2026-05-08 15:41 44.81357 9.22781 24002 ft 397 kts 193°
2026-05-08 15:41 44.78623 9.22133 24467 ft 401 kts 193°
2026-05-08 15:41 44.75862 9.21480 24922 ft 403 kts 193°
2026-05-08 15:42 44.73086 9.20824 25379 ft 406 kts 193°
2026-05-08 15:42 44.70289 9.20162 25827 ft 409 kts 193°
2026-05-08 15:42 44.67466 9.19495 26278 ft 412 kts 193°
2026-05-08 15:42 44.64629 9.18827 26718 ft 415 kts 193°
2026-05-08 15:43 44.61764 9.18153 27145 ft 419 kts 194°
2026-05-08 15:43 44.58885 9.17476 27573 ft 422 kts 194°
2026-05-08 15:43 44.55978 9.16797 28001 ft 424 kts 195°
2026-05-08 15:43 44.53066 9.16116 28399 ft 427 kts 195°
2026-05-08 15:44 44.50123 9.15425 28787 ft 430 kts 195°
2026-05-08 15:44 44.47161 9.14727 29205 ft 433 kts 195°
2026-05-08 15:44 44.44181 9.14026 29595 ft 436 kts 195°
2026-05-08 15:44 44.41179 9.13321 29974 ft 438 kts 195°
2026-05-08 15:45 44.38161 9.12617 30310 ft 441 kts 196°
2026-05-08 15:45 44.35123 9.11913 30640 ft 444 kts 196°
2026-05-08 15:45 44.32073 9.11210 30960 ft 446 kts 196°
2026-05-08 15:45 44.29004 9.10502 31281 ft 448 kts 196°
2026-05-08 15:46 44.25922 9.09789 31595 ft 450 kts 197°
2026-05-08 15:46 44.22833 9.09071 31933 ft 450 kts 197°
2026-05-08 15:46 44.19754 9.08353 32400 ft 448 kts 197°
2026-05-08 15:46 44.16689 9.07639 32869 ft 446 kts 197°
2026-05-08 15:47 44.13638 9.06930 33344 ft 444 kts 197°
2026-05-08 15:47 44.10601 9.06224 33822 ft 442 kts 198°
2026-05-08 15:47 44.07576 9.05519 34259 ft 440 kts 198°
2026-05-08 15:47 44.04560 9.04821 34651 ft 438 kts 197°
2026-05-08 15:48 43.98569 9.03451 35419 ft 436 kts 197°
2026-05-08 15:48 43.95581 9.02762 35747 ft 435 kts 196°
2026-05-08 15:48 43.92594 9.02074 36062 ft 435 kts 196°
2026-05-08 15:49 43.89600 9.01406 36376 ft 435 kts 195°
2026-05-08 15:49 43.86612 9.00756 36653 ft 435 kts 195°
2026-05-08 15:49 43.83616 9.00117 36927 ft 436 kts 195°
2026-05-08 15:50 43.77636 8.98841 37010 ft 434 kts 195°
2026-05-08 15:50 43.71682 8.97553 37011 ft 433 kts 195°
2026-05-08 15:51 43.65735 8.96254 37004 ft 432 kts 195°
2026-05-08 15:51 43.59673 8.95827 37013 ft 440 kts 186°
2026-05-08 15:52 43.53555 8.95838 37015 ft 439 kts 186°
2026-05-08 15:52 43.47441 8.95842 36993 ft 439 kts 186°
2026-05-08 15:53 43.41329 8.95839 37007 ft 439 kts 186°
2026-05-08 15:53 43.35249 8.95636 37011 ft 435 kts 190°
2026-05-08 15:54 43.29275 8.94899 37012 ft 433 kts 192°
2026-05-08 15:54 43.23283 8.94047 37016 ft 432 kts 192°
2026-05-08 15:55 43.17298 8.93309 37027 ft 432 kts 191°
2026-05-08 15:55 43.08327 8.92295 37028 ft 431 kts 191°
2026-05-08 15:56 43.02366 8.91625 37023 ft 429 kts 191°
2026-05-08 15:56 42.96413 8.90943 37029 ft 429 kts 191°
2026-05-08 15:57 42.90472 8.90259 37029 ft 428 kts 191°
2026-05-08 15:57 42.84543 8.89576 37011 ft 427 kts 191°
2026-05-08 15:58 42.78616 8.88898 37015 ft 427 kts 191°
2026-05-08 15:58 42.72699 8.88219 37026 ft 427 kts 191°
2026-05-08 15:59 42.66780 8.87542 37009 ft 426 kts 191°
2026-05-08 15:59 42.60868 8.86869 37018 ft 426 kts 191°
2026-05-08 16:00 42.54960 8.86204 37022 ft 426 kts 191°
2026-05-08 16:00 42.49054 8.85542 37024 ft 426 kts 191°
2026-05-08 16:01 42.43146 8.84868 37027 ft 426 kts 191°
2026-05-08 16:01 42.37251 8.84198 37027 ft 425 kts 191°
2026-05-08 16:02 42.31394 8.83537 37021 ft 426 kts 191°
2026-05-08 16:02 42.25494 8.82874 37004 ft 425 kts 191°
2026-05-08 16:03 42.19603 8.82211 37015 ft 424 kts 191°
2026-05-08 16:03 42.14713 8.81661 37005 ft 424 kts 192°
2026-05-08 16:04 42.08833 8.80999 37005 ft 424 kts 191°
2026-05-08 16:04 42.02950 8.80350 36988 ft 424 kts 191°
2026-05-08 16:05 41.97074 8.79708 36993 ft 423 kts 191°
2026-05-08 16:05 41.91207 8.79043 36995 ft 423 kts 191°
2026-05-08 16:06 41.85341 8.78382 36974 ft 423 kts 191°
2026-05-08 16:06 41.79467 8.77732 36986 ft 423 kts 191°
2026-05-08 16:07 41.73536 8.77754 36990 ft 430 kts 183°
2026-05-08 16:07 41.67558 8.78282 36997 ft 430 kts 183°
2026-05-08 16:08 41.61588 8.78813 36990 ft 430 kts 183°
2026-05-08 16:08 41.55616 8.79341 37004 ft 430 kts 183°
2026-05-08 16:09 41.49646 8.79853 37010 ft 430 kts 183°
2026-05-08 16:09 41.43675 8.80359 36988 ft 430 kts 184°
2026-05-08 16:10 41.37710 8.80871 37005 ft 429 kts 184°
2026-05-08 16:10 41.31748 8.81932 37014 ft 441 kts 171°
2026-05-08 16:11 41.25868 8.84317 37015 ft 437 kts 176°
2026-05-08 16:11 41.19935 8.84886 37000 ft 424 kts 187°
2026-05-08 16:12 41.14071 8.84938 37014 ft 424 kts 187°
2026-05-08 16:12 41.08168 8.85019 37023 ft 424 kts 187°
2026-05-08 16:13 41.02266 8.85100 36820 ft 424 kts 187°
2026-05-08 16:13 40.99314 8.85133 36540 ft 423 kts 187°
2026-05-08 16:13 40.96372 8.85165 36284 ft 423 kts 187°
2026-05-08 16:14 40.93425 8.85221 36013 ft 423 kts 186°
2026-05-08 16:14 40.90468 8.85296 35139 ft 429 kts 186°
2026-05-08 16:14 40.87466 8.85383 34285 ft 433 kts 185°
2026-05-08 16:14 40.84439 8.85477 33343 ft 437 kts 185°
2026-05-08 16:15 40.81419 8.85577 32822 ft 431 kts 185°
2026-05-08 16:15 40.78437 8.85746 32198 ft 427 kts 183°
2026-05-08 16:15 40.75486 8.85984 31634 ft 423 kts 182°
2026-05-08 16:15 40.72565 8.86258 31055 ft 419 kts 182°
2026-05-08 16:16 40.69666 8.86537 30489 ft 416 kts 182°
2026-05-08 16:16 40.66791 8.86805 29901 ft 412 kts 182°
2026-05-08 16:16 40.63938 8.87060 29324 ft 408 kts 182°
2026-05-08 16:16 40.61125 8.87303 28780 ft 403 kts 183°
2026-05-08 16:17 40.58345 8.87537 28240 ft 398 kts 183°
2026-05-08 16:17 40.55598 8.87762 27709 ft 394 kts 184°
2026-05-08 16:17 40.52876 8.87984 27209 ft 390 kts 184°
2026-05-08 16:17 40.50183 8.88203 26707 ft 387 kts 184°
2026-05-08 16:18 40.47504 8.88421 26220 ft 384 kts 184°
2026-05-08 16:18 40.44846 8.88641 25741 ft 382 kts 184°
2026-05-08 16:18 40.42204 8.88864 25286 ft 380 kts 184°
2026-05-08 16:18 40.39569 8.89084 24824 ft 378 kts 184°
2026-05-08 16:19 40.36949 8.89301 24364 ft 377 kts 184°
2026-05-08 16:19 40.34338 8.89518 23909 ft 375 kts 184°
2026-05-08 16:19 40.31740 8.89730 23405 ft 374 kts 184°
2026-05-08 16:19 40.29156 8.89941 22915 ft 371 kts 184°
2026-05-08 16:20 40.26592 8.90151 22448 ft 367 kts 184°
2026-05-08 16:20 40.24053 8.90362 21984 ft 364 kts 184°
2026-05-08 16:20 40.21531 8.90574 21508 ft 362 kts 184°
2026-05-08 16:20 40.19027 8.90783 21029 ft 359 kts 184°
2026-05-08 16:21 40.16535 8.90987 20564 ft 358 kts 184°
2026-05-08 16:21 40.14052 8.91185 20086 ft 356 kts 184°
2026-05-08 16:21 40.11584 8.91379 19601 ft 355 kts 184°
2026-05-08 16:21 40.09121 8.91574 19138 ft 354 kts 184°
2026-05-08 16:22 40.06701 8.91767 18672 ft 353 kts 184°
2026-05-08 16:22 40.04250 8.91964 18186 ft 353 kts 184°
2026-05-08 16:22 40.01800 8.92162 17690 ft 351 kts 183°
2026-05-08 16:22 39.99373 8.92360 17232 ft 349 kts 183°
2026-05-08 16:23 39.96960 8.92557 16781 ft 346 kts 183°
2026-05-08 16:23 39.94560 8.92751 16339 ft 345 kts 182°
2026-05-08 16:23 39.92169 8.92949 15896 ft 343 kts 182°
2026-05-08 16:23 39.89787 8.93149 15471 ft 341 kts 182°
2026-05-08 16:24 39.87469 8.93348 15330 ft 326 kts 182°
2026-05-08 16:24 39.85240 8.93541 14920 ft 318 kts 182°
2026-05-08 16:24 39.83048 8.93724 14412 ft 314 kts 181°
2026-05-08 16:24 39.80885 8.94170 13903 ft 317 kts 169°
2026-05-08 16:25 39.78833 8.95249 13359 ft 322 kts 155°
2026-05-08 16:25 39.76943 8.96813 12982 ft 322 kts 151°
2026-05-08 16:25 39.75068 8.98385 12676 ft 318 kts 151°
2026-05-08 16:25 39.73219 8.99920 12194 ft 314 kts 151°
2026-05-08 16:26 39.71380 9.01436 11639 ft 311 kts 151°
2026-05-08 16:26 39.69571 9.02927 11210 ft 305 kts 150°
2026-05-08 16:26 39.67800 9.04388 10795 ft 298 kts 150°
2026-05-08 16:26 39.66069 9.05806 10385 ft 289 kts 154°
2026-05-08 16:27 39.64260 9.06787 9997 ft 276 kts 169°
2026-05-08 16:27 39.62400 9.07132 9558 ft 265 kts 183°
2026-05-08 16:27 39.60585 9.07164 9157 ft 258 kts 183°
2026-05-08 16:27 39.58817 9.07207 8776 ft 250 kts 182°
2026-05-08 16:28 39.57098 9.07252 8400 ft 244 kts 182°
2026-05-08 16:28 39.55424 9.07295 8034 ft 238 kts 181°
2026-05-08 16:28 39.53806 9.07144 7689 ft 230 kts 194°
2026-05-08 16:28 39.52324 9.06449 7360 ft 226 kts 209°
2026-05-08 16:29 39.51022 9.05313 7016 ft 227 kts 217°
2026-05-08 16:29 39.49741 9.04096 6656 ft 229 kts 217°
2026-05-08 16:29 39.48469 9.02892 6302 ft 225 kts 216°
2026-05-08 16:29 39.47198 9.01692 5947 ft 227 kts 216°
2026-05-08 16:30 39.45918 9.00484 5597 ft 228 kts 216°
2026-05-08 16:30 39.44634 8.99273 5254 ft 229 kts 216°
2026-05-08 16:30 39.43341 8.98058 4908 ft 230 kts 216°
2026-05-08 16:30 39.42042 8.96837 4548 ft 231 kts 216°
2026-05-08 16:31 39.40739 8.95610 4192 ft 232 kts 216°
2026-05-08 16:31 39.39434 8.94383 3839 ft 232 kts 216°
2026-05-08 16:31 39.38123 8.93163 3485 ft 232 kts 213°
2026-05-08 16:31 39.36607 8.92570 3095 ft 231 kts 176°
2026-05-08 16:32 39.35131 8.93301 2749 ft 228 kts 146°
2026-05-08 16:32 39.33939 8.94575 2401 ft 219 kts 136°
2026-05-08 16:32 39.32892 8.95917 2071 ft 211 kts 134°
2026-05-08 16:32 39.31873 8.97247 1779 ft 205 kts 134°
2026-05-08 16:33 39.30882 8.98513 1460 ft 197 kts 135°
2026-05-08 16:33 39.29915 8.99715 1156 ft 188 kts 136°
2026-05-08 16:33 39.29009 9.00819 933 ft 170 kts 138°
2026-05-08 16:33 39.28222 9.01807 769 ft 148 kts 134°
2026-05-08 16:34 39.27504 9.02716 477 ft 138 kts 139°
2026-05-08 16:34 39.26811 9.03513 251 ft 129 kts 138°
2026-05-08 16:34 39.26152 9.04272 67 ft 126 kts 139°
2026-05-08 16:34 39.25536 9.04980 16 ft 105 kts 138°
2026-05-08 16:35 39.25119 9.05463 15 ft 56 kts 137°
2026-05-08 16:35 39.24888 9.05731 17 ft 36 kts 138°
2026-05-08 16:35 39.24722 9.05922 15 ft 23 kts 137°
2026-05-08 16:35 39.24690 9.06062 16 ft 16 kts 70°
2026-05-08 16:36 39.24716 9.06139 15 ft 7 kts 68°
2026-05-08 16:36 39.24736 9.06200 16 ft 8 kts 67°
2026-05-08 16:36 39.24760 9.06271 15 ft 9 kts 65°
2026-05-08 16:36 39.24816 9.06277 15 ft 9 kts 331°
2026-05-08 16:37 39.24872 9.06228 15 ft 10 kts 326°
2026-05-08 16:37 39.24933 9.06169 15 ft 12 kts 321°
2026-05-08 16:37 39.24998 9.06096 15 ft 13 kts 315°
2026-05-08 16:37 39.25063 9.06004 15 ft 14 kts 312°
2026-05-08 16:38 39.25132 9.05906 15 ft 15 kts 314°
2026-05-08 16:38 39.25212 9.05811 15 ft 16 kts 318°
2026-05-08 16:38 39.25263 9.05788 15 ft 6 kts 40°
2026-05-08 16:38 39.25289 9.05831 15 ft 3 kts 51°
2026-05-08 16:39 39.25290 9.05832 15 ft 0 kts 51°
2026-05-08 16:49 39.25289 9.05832 15 ft 0 kts 51°
2026-05-08 16:49 39.25289 9.05831 15 ft 0 kts 51°